Location: Bakov nad Jizerou
(50.4784°N, 14.9394°E)
Time: 17:46:18
(UTC+00:00)

Cosmos 2322 - Pass Details

Date: 31 October 2021
Orbit: 841 x 854 km, 71.0° (Epoch: 04 December)

Event Time Altitude Azimuth Distance (km) Brightness Sun altitude
Exits shadow 02:26:51 20° 147° (SSE) 1,873 5.6 -32.4°
Drops below altitude 10° 02:28:27 10° 149° (SSE) 2,462 6.2 -32.2°
Sets 02:30:53 0° 150° (SSE) 3,392 7.0 -31.8°
